sat.trackr.live / text

‹ back to catalog

SJ-11-05

NORAD 39202 · 2013-035A

PAYLOAD ACTIVE UNKNOWN

§ Identity

Operator
Country
PRC
Launch date
2013-07-15
Launch site
JSC
Launch vehicle
Mass (kg)
RCS (m²)
2.31

External: N2YO · Heavens-Above · Gunter

§ Orbital elements

Epoch: 2026-05-25T04:10:01.937856Z

Period
98.30 min
Inclination
98.2865°
Eccentricity
0.0009010
Mean motion
14.64860087 rev/d
Perigee alt
671.2 km
Apogee alt
683.9 km
Semi-major
7,055.7 km
B*
8.1096e-5
RAAN
329.8264°
Arg perigee
313.2430°
Mean anomaly
46.8020°
Rev number
68,586

§ Raw data

SJ-11-051 39202U 13035A   26145.17363354  .00000384  00000+0  81096-4 0  99902 39202  98.2865 329.8264 0009010 313.2430  46.8020 14.64860087685863

JSON: /api/v1/satellites/39202 · /tle

For live sub-satellite position, see the globe view (requires WebGL).

§ Visibility from observer

Set your observer location to see the next 7 days of passes ≥ 10°. The values pass through the URL so the page stays shareable.

No JS? Fill the form by hand. The geolocation button needs JavaScript.